QPF
0.00 0.00 0.00 0.00 0.01 0.01 0.02 0.03 0.03 0.02 0.02 0.03 0.04 0.04 0.04 0.04 0.03 0.03 0.03 0.03 0.03 0.03 0.03 0.03 0.03 0.04 0.05 0.06 0.06 0.06 0.06 0.06 0.05 0.03 0.03 0.03 0.03 0.04 0.03 0.03 0.03 0.03 0.02
0.00 0.00 0.00 0.00 0.01 0.01 0.02 0.02 0.02 0.03 0.03 0.03 0.04 0.05 0.05 0.04 0.04 0.03 0.03 0.03 0.03 0.03 0.03 0.03 0.03 0.03 0.04 0.04 0.05 0.06 0.06 0.06 0.06 0.05 0.04 0.03 0.03 0.03 0.03 0.03 0.03 0.03 0.03
0.01 0.01 0.01 0.01 0.01 0.01 0.02 0.02 0.02 0.02 0.03 0.03 0.03 0.04 0.04 0.04 0.04 0.04 0.03 0.03 0.03 0.03 0.04 0.04 0.03 0.03 0.03 0.03 0.04 0.04 0.05 0.05 0.06 0.06 0.05 0.04 0.03 0.03 0.03 0.03 0.02 0.02 0.02
0.01 0.01 0.01 0.01 0.01 0.01 0.01 0.01 0.02 0.02 0.02 0.02 0.03 0.03 0.04 0.03 0.03 0.03 0.03 0.03 0.03 0.03 0.02 0.02 0.02 0.03 0.03 0.04 0.04 0.04 0.04 0.04 0.05 0.05 0.05 0.04 0.03 0.03 0.02 0.03 0.02 0.02 0.02
0.01 0.02 0.02 0.02 0.02 0.01 0.01 0.01 0.01 0.02 0.02 0.02 0.02 0.03 0.03 0.03 0.02 0.02 0.03 0.03 0.03 0.03 0.02 0.02 0.02 0.02 0.02 0.03 0.04 0.04 0.04 0.05 0.05 0.06 0.05 0.04 0.03 0.03 0.03 0.02 0.02 0.02 0.02
0.02 0.02 0.02 0.02 0.02 0.02 0.01 0.01 0.02 0.02 0.02 0.02 0.02 0.02 0.02 0.02 0.03 0.03 0.02 0.02 0.02 0.02 0.02 0.02 0.02 0.02 0.02 0.02 0.03 0.03 0.03 0.04 0.05 0.05 0.05 0.04 0.03 0.02 0.02 0.02 0.02 0.02 0.02
0.02 0.02 0.02 0.01 0.01 0.01 0.01 0.01 0.02 0.02 0.03 0.03 0.03 0.02 0.02 0.03 0.03 0.03 0.02 0.02 0.02 0.02 0.02 0.03 0.03 0.03 0.02 0.02 0.02 0.02 0.02 0.02 0.03 0.04 0.04 0.04 0.03 0.02 0.01 0.02 0.02 0.02 0.02
0.02 0.02 0.02 0.02 0.01 0.01 0.01 0.01 0.02 0.02 0.03 0.03 0.03 0.03 0.03 0.03 0.04 0.03 0.03 0.02 0.02 0.02 0.02 0.02 0.03 0.03 0.04 0.03 0.02 0.02 0.02 0.02 0.02 0.02 0.02 0.02 0.02 0.02 0.02 0.02 0.02 0.02 0.02
0.02 0.02 0.02 0.02 0.01 0.01 0.01 0.02 0.02 0.02 0.02 0.02 0.02 0.03 0.03 0.03 0.03 0.03 0.02 0.02 0.02 0.02 0.02 0.02 0.02 0.02 0.03 0.04 0.04 0.04 0.03 0.03 0.03 0.03 0.03 0.03 0.03 0.03 0.03 0.03 0.03 0.03 0.02
0.02 0.02 0.02 0.02 0.02 0.02 0.02 0.02 0.02 0.02 0.02 0.03 0.02 0.02 0.02 0.02 0.02 0.02 0.02 0.02 0.02 0.02 0.02 0.02 0.02 0.02 0.02 0.03 0.03 0.04 0.04 0.04 0.04 0.04 0.04 0.04 0.04 0.05 0.05 0.04 0.03 0.02 0.02
0.02 0.02 0.02 0.02 0.02 0.02 0.02 0.02 0.02 0.02 0.03 0.03 0.02 0.03 0.02 0.02 0.02 0.02 0.02 0.02 0.02 0.02 0.01 0.01 0.02 0.02 0.02 0.02 0.03 0.03 0.04 0.04 0.04 0.05 0.05 0.06 0.06 0.07 0.06 0.05 0.03 0.03 0.02
0.02 0.01 0.02 0.02 0.02 0.02 0.02 0.02 0.02 0.02 0.02 0.02 0.02 0.02 0.02 0.02 0.01 0.02 0.02 0.02 0.02 0.02 0.01 0.01 0.01 0.02 0.02 0.03 0.03 0.03 0.03 0.03 0.03 0.04 0.05 0.05 0.06 0.07 0.06 0.05 0.04 0.03 0.03
0.01 0.01 0.02 0.02 0.02 0.02 0.02 0.02 0.02 0.02 0.02 0.02 0.02 0.02 0.02 0.01 0.01 0.02 0.02 0.02 0.02 0.02 0.01 0.01 0.01 0.02 0.02 0.03 0.03 0.03 0.04 0.04 0.04 0.04 0.05 0.05 0.04 0.04 0.04 0.04 0.04 0.04 0.04
0.01 0.01 0.02 0.02 0.02 0.02 0.02 0.02 0.02 0.02 0.02 0.02 0.01 0.01 0.01 0.01 0.01 0.01 0.01 0.01 0.01 0.01 0.01 0.02 0.02 0.02 0.02 0.03 0.03 0.03 0.03 0.03 0.03 0.04 0.04 0.04 0.03 0.03 0.04 0.04 0.04 0.04 0.04
0.01 0.01 0.02 0.02 0.02 0.02 0.02 0.02 0.02 0.02 0.02 0.02 0.02 0.01 0.01 0.01 0.01 0.01 0.01 0.01 0.01 0.01 0.01 0.01 0.02 0.01 0.01 0.02 0.02 0.02 0.03 0.03 0.03 0.03 0.03 0.03 0.04 0.04 0.04 0.04 0.04 0.03 0.03
0.02 0.02 0.02 0.02 0.02 0.02 0.02 0.02 0.02 0.02 0.02 0.02 0.02 0.01 0.01 0.01 0.01 0.01 0.01 0.01 0.01 0.01 0.01 0.01 0.01 0.02 0.01 0.01 0.01 0.02 0.02 0.02 0.02 0.02 0.03 0.03 0.03 0.03 0.03 0.03 0.03 0.03 0.03
0.02 0.02 0.02 0.02 0.02 0.02 0.02 0.02 0.02 0.02 0.02 0.01 0.01 0.01 0.01 0.01 0.01 0.01 0.01 0.01 0.01 0.01 0.01 0.01 0.02 0.02 0.02 0.02 0.02 0.02 0.02 0.02 0.02 0.02 0.02 0.02 0.03 0.03 0.03 0.03 0.03 0.03 0.02
0.02 0.02 0.02 0.02 0.02 0.02 0.02 0.02 0.01 0.01 0.01 0.01 0.02 0.01 0.01 0.01 0.01 0.01 0.01 0.01 0.01 0.01 0.01 0.01 0.02 0.02 0.02 0.02 0.03 0.02 0.02 0.02 0.02 0.02 0.02 0.02 0.02 0.02 0.02 0.03 0.03 0.02 0.02
0.02 0.02 0.02 0.02 0.02 0.02 0.02 0.02 0.02 0.01 0.01 0.02 0.02 0.02 0.01 0.01 0.01 0.01 0.01 0.01 0.01 0.01 0.01 0.01 0.01 0.01 0.01 0.02 0.02 0.02 0.02 0.02 0.01 0.01 0.01 0.02 0.02 0.02 0.02 0.02 0.02 0.02 0.02
0.02 0.02 0.02 0.03 0.03 0.03 0.03 0.03 0.02 0.02 0.02 0.02 0.01 0.01 0.01 0.01 0.01 0.01 0.01 0.01 0.01 0.01 0.01 0.01 0.01 0.01 0.01 0.01 0.01 0.01 0.01 0.01 0.01 0.01 0.01 0.01 0.02 0.02 0.02 0.02 0.02 0.02 0.02
0.03 0.03 0.03 0.03 0.03 0.03 0.03 0.02 0.02 0.02 0.02 0.01 0.01 0.01 0.01 0.01 0.01 0.01 0.00 0.00 0.00 0.00 0.00 0.00 0.01 0.01 0.01 0.01 0.01 0.01 0.01 0.01 0.01 0.01 0.01 0.01 0.01 0.01 0.01 0.01 0.02 0.02 0.02
0.03 0.03 0.03 0.03 0.03 0.02 0.02 0.02 0.02 0.02 0.01 0.01 0.01 0.01 0.01 0.01 0.01 0.01 0.00 0.00 0.00 0.00 0.00 0.00 0.00 0.01 0.01 0.01 0.01 0.01 0.01 0.01 0.01 0.01 0.01 0.01 0.01 0.01 0.01 0.01 0.01 0.02 0.02
0.03 0.03 0.03 0.03 0.03 0.03 0.03 0.02 0.02 0.02 0.01 0.01 0.01 0.01 0.01 0.01 0.01 0.01 0.00 0.00 0.00 0.00 0.00 0.00 0.00 0.00 0.01 0.01 0.01 0.01 0.01 0.01 0.01 0.01 0.01 0.01 0.01 0.01 0.01 0.01 0.01 0.02 0.01
0.03 0.03 0.02 0.02 0.03 0.03 0.03 0.02 0.02 0.02 0.01 0.01 0.01 0.01 0.01 0.01 0.00 0.00 0.00 0.00 0.00 0.00 0.00 0.00 0.00 0.00 0.00 0.00 0.00 0.01 0.01 0.01 0.01 0.01 0.00 0.01 0.01 0.01 0.01 0.01 0.01 0.01 0.01
0.02 0.02 0.02 0.02 0.02 0.03 0.03 0.02 0.02 0.02 0.02 0.01 0.01 0.01 0.01 0.01 0.00 0.00 0.00 0.00 0.00 0.00 0.00 0.00 0.00 0.00 0.00 0.00 0.00 0.00 0.00 0.00 0.00 0.00 0.00 0.01 0.01 0.01 0.01 0.01 0.01 0.01 0.01
0.02 0.02 0.02 0.02 0.02 0.02 0.03 0.03 0.03 0.03 0.02 0.01 0.01 0.01 0.01 0.01 0.00 0.00 0.00 0.00 0.00 0.00 0.00 0.00 0.00 0.00 0.00 0.00 0.00 0.00 0.00 0.00 0.01 0.01 0.01 0.01 0.01 0.01 0.01 0.01 0.01 0.01 0.01
MSLP
1029.76 1029.56 1029.30 1028.99 1028.68 1028.38 1028.10 1027.84 1027.58 1027.31 1027.01 1026.65 1026.24 1025.78 1025.28 1024.76 1024.26 1023.81 1023.42 1023.13 1022.94 1022.86 1022.87 1022.94 1023.04 1023.14 1023.21 1023.21 1023.13 1022.96 1022.70 1022.38 1022.02 1021.65 1021.32 1021.04 1020.83 1020.71 1020.66 1020.67 1020.72 1020.77 1020.80
1030.73 1030.53 1030.25 1029.94 1029.62 1029.31 1029.02 1028.75 1028.49 1028.22 1027.92 1027.56 1027.14 1026.65 1026.12 1025.56 1025.00 1024.47 1024.01 1023.64 1023.37 1023.21 1023.13 1023.13 1023.17 1023.21 1023.23 1023.20 1023.09 1022.90 1022.63 1022.30 1021.94 1021.58 1021.23 1020.94 1020.72 1020.56 1020.48 1020.44 1020.43 1020.42 1020.39
1031.61 1031.39 1031.09 1030.76 1030.42 1030.10 1029.81 1029.55 1029.30 1029.04 1028.75 1028.41 1028.01 1027.54 1027.01 1026.45 1025.89 1025.35 1024.86 1024.45 1024.13 1023.90 1023.76 1023.67 1023.63 1023.59 1023.53 1023.41 1023.24 1022.99 1022.67 1022.31 1021.91 1021.52 1021.15 1020.83 1020.57 1020.38 1020.25 1020.17 1020.11 1020.05 1019.96
1032.39 1032.12 1031.80 1031.45 1031.10 1030.78 1030.49 1030.23 1029.99 1029.76 1029.49 1029.19 1028.83 1028.40 1027.92 1027.41 1026.88 1026.36 1025.89 1025.48 1025.14 1024.87 1024.66 1024.50 1024.36 1024.22 1024.05 1023.83 1023.55 1023.22 1022.82 1022.38 1021.93 1021.48 1021.07 1020.70 1020.40 1020.16 1019.98 1019.85 1019.74 1019.64 1019.52
1033.07 1032.76 1032.41 1032.05 1031.69 1031.36 1031.08 1030.83 1030.61 1030.40 1030.17 1029.91 1029.59 1029.23 1028.81 1028.37 1027.90 1027.44 1027.01 1026.63 1026.28 1025.99 1025.74 1025.50 1025.27 1025.02 1024.73 1024.40 1024.00 1023.55 1023.06 1022.53 1022.00 1021.48 1021.00 1020.57 1020.21 1019.92 1019.69 1019.51 1019.36 1019.22 1019.07
1033.67 1033.33 1032.96 1032.58 1032.23 1031.91 1031.64 1031.41 1031.21 1031.02 1030.82 1030.60 1030.34 1030.03 1029.68 1029.30 1028.91 1028.51 1028.13 1027.78 1027.44 1027.14 1026.84 1026.54 1026.22 1025.87 1025.48 1025.03 1024.52 1023.97 1023.38 1022.76 1022.15 1021.55 1021.00 1020.50 1020.07 1019.71 1019.42 1019.18 1018.98 1018.81 1018.63
1034.23 1033.87 1033.49 1033.11 1032.77 1032.47 1032.21 1032.01 1031.83 1031.67 1031.50 1031.31 1031.08 1030.82 1030.52 1030.20 1029.86 1029.52 1029.17 1028.84 1028.51 1028.19 1027.86 1027.50 1027.11 1026.68 1026.20 1025.66 1025.07 1024.43 1023.77 1023.08 1022.40 1021.74 1021.11 1020.54 1020.04 1019.60 1019.23 1018.92 1018.66 1018.43 1018.22
1034.76 1034.39 1034.02 1033.67 1033.35 1033.07 1032.85 1032.67 1032.52 1032.37 1032.23 1032.06 1031.85 1031.62 1031.35 1031.05 1030.74 1030.42 1030.09 1029.76 1029.43 1029.08 1028.72 1028.32 1027.88 1027.39 1026.86 1026.27 1025.63 1024.96 1024.25 1023.53 1022.81 1022.10 1021.41 1020.77 1020.19 1019.66 1019.19 1018.79 1018.44 1018.13 1017.86
1035.26 1034.92 1034.57 1034.25 1033.97 1033.74 1033.55 1033.40 1033.28 1033.15 1033.01 1032.85 1032.66 1032.43 1032.16 1031.87 1031.56 1031.23 1030.90 1030.55 1030.19 1029.82 1029.42 1028.99 1028.53 1028.02 1027.46 1026.86 1026.23 1025.55 1024.85 1024.13 1023.40 1022.66 1021.94 1021.23 1020.56 1019.94 1019.36 1018.84 1018.37 1017.96 1017.58
1035.75 1035.44 1035.14 1034.86 1034.63 1034.44 1034.30 1034.18 1034.07 1033.97 1033.84 1033.68 1033.48 1033.25 1032.97 1032.66 1032.33 1031.98 1031.62 1031.24 1030.86 1030.46 1030.03 1029.58 1029.11 1028.60 1028.06 1027.49 1026.88 1026.25 1025.59 1024.90 1024.18 1023.45 1022.70 1021.94 1021.19 1020.46 1019.76 1019.11 1018.50 1017.94 1017.44
1036.22 1035.95 1035.70 1035.47 1035.28 1035.14 1035.03 1034.95 1034.87 1034.78 1034.66 1034.51 1034.31 1034.06 1033.76 1033.43 1033.07 1032.70 1032.30 1031.90 1031.48 1031.06 1030.62 1030.17 1029.70 1029.21 1028.71 1028.19 1027.64 1027.07 1026.47 1025.83 1025.15 1024.43 1023.67 1022.88 1022.06 1021.23 1020.41 1019.61 1018.85 1018.14 1017.47
1036.66 1036.44 1036.23 1036.05 1035.90 1035.80 1035.72 1035.66 1035.61 1035.54 1035.43 1035.28 1035.08 1034.83 1034.53 1034.19 1033.81 1033.41 1033.00 1032.58 1032.15 1031.71 1031.27 1030.82 1030.38 1029.92 1029.47 1029.00 1028.52 1028.01 1027.48 1026.90 1026.26 1025.57 1024.81 1023.99 1023.12 1022.21 1021.28 1020.35 1019.45 1018.57 1017.75
1037.08 1036.90 1036.73 1036.58 1036.46 1036.38 1036.33 1036.29 1036.25 1036.19 1036.10 1035.97 1035.78 1035.54 1035.24 1034.91 1034.54 1034.15 1033.73 1033.31 1032.88 1032.45 1032.02 1031.60 1031.18 1030.76 1030.35 1029.93 1029.50 1029.05 1028.57 1028.04 1027.44 1026.78 1026.03 1025.20 1024.30 1023.34 1022.33 1021.30 1020.27 1019.26 1018.28
1037.47 1037.33 1037.19 1037.06 1036.96 1036.89 1036.84 1036.81 1036.78 1036.74 1036.67 1036.55 1036.38 1036.17 1035.90 1035.59 1035.25 1034.88 1034.50 1034.10 1033.70 1033.29 1032.89 1032.49 1032.10 1031.71 1031.33 1030.95 1030.55 1030.14 1029.69 1029.18 1028.62 1027.98 1027.25 1026.43 1025.52 1024.54 1023.50 1022.41 1021.30 1020.19 1019.09
1037.83 1037.73 1037.60 1037.48 1037.39 1037.31 1037.27 1037.24 1037.21 1037.18 1037.12 1037.03 1036.89 1036.71 1036.48 1036.22 1035.92 1035.60 1035.26 1034.91 1034.55 1034.18 1033.82 1033.45 1033.09 1032.72 1032.36 1031.99 1031.60 1031.19 1030.75 1030.26 1029.71 1029.09 1028.38 1027.58 1026.70 1025.74 1024.70 1023.61 1022.47 1021.30 1020.12
1038.15 1038.07 1037.97 1037.86 1037.76 1037.68 1037.63 1037.59 1037.57 1037.54 1037.49 1037.41 1037.31 1037.16 1036.98 1036.77 1036.53 1036.26 1035.98 1035.68 1035.37 1035.06 1034.73 1034.40 1034.06 1033.70 1033.34 1032.96 1032.57 1032.15 1031.70 1031.20 1030.65 1030.04 1029.36 1028.61 1027.77 1026.85 1025.86 1024.80 1023.68 1022.50 1021.29
1038.38 1038.34 1038.25 1038.16 1038.07 1037.99 1037.94 1037.90 1037.87 1037.84 1037.80 1037.74 1037.66 1037.54 1037.40 1037.23 1037.04 1036.83 1036.60 1036.36 1036.10 1035.83 1035.54 1035.24 1034.91 1034.57 1034.20 1033.81 1033.40 1032.95 1032.48 1031.97 1031.42 1030.82 1030.17 1029.45 1028.67 1027.82 1026.90 1025.90 1024.83 1023.69 1022.48
1038.47 1038.47 1038.43 1038.37 1038.30 1038.24 1038.19 1038.16 1038.13 1038.11 1038.07 1038.03 1037.95 1037.86 1037.74 1037.61 1037.45 1037.28 1037.09 1036.89 1036.67 1036.43 1036.17 1035.89 1035.58 1035.24 1034.87 1034.47 1034.03 1033.57 1033.07 1032.55 1031.99 1031.40 1030.78 1030.11 1029.38 1028.60 1027.76 1026.83 1025.82 1024.73 1023.55
1038.37 1038.44 1038.45 1038.44 1038.42 1038.39 1038.37 1038.36 1038.35 1038.33 1038.31 1038.27 1038.20 1038.11 1038.01 1037.88 1037.74 1037.58 1037.41 1037.23 1037.04 1036.82 1036.58 1036.32 1036.02 1035.69 1035.32 1034.91 1034.46 1033.98 1033.48 1032.94 1032.39 1031.81 1031.20 1030.56 1029.89 1029.16 1028.38 1027.52 1026.57 1025.53 1024.39
1038.04 1038.19 1038.29 1038.35 1038.40 1038.43 1038.46 1038.48 1038.50 1038.50 1038.49 1038.45 1038.39 1038.30 1038.19 1038.05 1037.91 1037.75 1037.58 1037.40 1037.20 1036.99 1036.76 1036.51 1036.22 1035.90 1035.53 1035.13 1034.69 1034.21 1033.71 1033.17 1032.62 1032.04 1031.45 1030.83 1030.19 1029.50 1028.75 1027.93 1027.03 1026.03 1024.92
1037.49 1037.74 1037.94 1038.10 1038.23 1038.34 1038.43 1038.50 1038.56 1038.59 1038.59 1038.56 1038.49 1038.40 1038.28 1038.13 1037.96 1037.78 1037.59 1037.40 1037.19 1036.97 1036.74 1036.48 1036.20 1035.89 1035.54 1035.15 1034.72 1034.26 1033.77 1033.25 1032.70 1032.13 1031.54 1030.93 1030.29 1029.60 1028.86 1028.06 1027.18 1026.20 1025.11
1036.78 1037.14 1037.44 1037.70 1037.92 1038.11 1038.28 1038.41 1038.50 1038.57 1038.59 1038.57 1038.51 1038.41 1038.27 1038.11 1037.92 1037.71 1037.50 1037.27 1037.04 1036.80 1036.55 1036.29 1036.01 1035.70 1035.37 1035.00 1034.59 1034.15 1033.68 1033.17 1032.63 1032.07 1031.47 1030.85 1030.19 1029.50 1028.75 1027.93 1027.04 1026.07 1025.00
1036.03 1036.48 1036.88 1037.23 1037.54 1037.80 1038.02 1038.20 1038.34 1038.44 1038.48 1038.47 1038.42 1038.32 1038.18 1038.00 1037.79 1037.56 1037.32 1037.06 1036.80 1036.53 1036.25 1035.97 1035.68 1035.37 1035.04 1034.68 1034.30 1033.88 1033.42 1032.93 1032.40 1031.83 1031.23 1030.59 1029.91 1029.19 1028.41 1027.57 1026.67 1025.69 1024.63
1035.37 1035.89 1036.36 1036.77 1037.14 1037.45 1037.72 1037.93 1038.10 1038.21 1038.27 1038.28 1038.23 1038.14 1038.00 1037.81 1037.60 1037.35 1037.08 1036.79 1036.50 1036.19 1035.88 1035.57 1035.25 1034.92 1034.58 1034.22 1033.83 1033.42 1032.97 1032.49 1031.97 1031.40 1030.79 1030.14 1029.44 1028.68 1027.88 1027.02 1026.11 1025.13 1024.10
1034.93 1035.48 1035.98 1036.43 1036.81 1037.14 1037.42 1037.64 1037.81 1037.92 1037.99 1038.00 1037.96 1037.87 1037.74 1037.56 1037.34 1037.08 1036.79 1036.48 1036.15 1035.80 1035.45 1035.09 1034.72 1034.35 1033.98 1033.59 1033.19 1032.77 1032.31 1031.83 1031.31 1030.74 1030.13 1029.46 1028.75 1027.99 1027.18 1026.32 1025.41 1024.46 1023.46
1034.78 1035.32 1035.81 1036.24 1036.61 1036.92 1037.16 1037.36 1037.50 1037.60 1037.65 1037.66 1037.62 1037.54 1037.41 1037.23 1037.01 1036.75 1036.45 1036.11 1035.74 1035.34 1034.93 1034.51 1034.08 1033.65 1033.22 1032.79 1032.34 1031.89 1031.41 1030.92 1030.39 1029.82 1029.21 1028.55 1027.85 1027.10 1026.31 1025.47 1024.59 1023.68 1022.74
Thickness
5455 5457 5458 5459 5459 5460 5461 5461 5462 5462 5462 5463 5464 5464 5464 5464 5464 5464 5465 5465 5466 5466 5465 5466 5466 5465 5465 5465 5463 5462 5462 5461 5462 5463 5460 5459 5459 5458 5458 5457 5457 5458 5459
5442 5443 5445 5445 5446 5447 5448 5448 5448 5449 5450 5450 5451 5452 5452 5452 5452 5452 5453 5453 5454 5454 5454 5454 5454 5453 5453 5452 5451 5450 5450 5449 5448 5449 5448 5446 5446 5447 5447 5446 5446 5447 5447
5429 5430 5431 5432 5433 5434 5434 5435 5435 5436 5437 5437 5438 5438 5439 5439 5439 5440 5440 5441 5441 5441 5442 5441 5441 5441 5440 5438 5437 5436 5435 5435 5435 5435 5436 5435 5434 5434 5435 5435 5435 5435 5436
5415 5416 5418 5418 5418 5420 5420 5421 5422 5422 5422 5423 5424 5424 5426 5426 5426 5427 5427 5427 5427 5427 5427 5427 5427 5427 5426 5424 5423 5422 5421 5421 5421 5423 5424 5423 5422 5422 5422 5423 5424 5424 5424
5400 5401 5402 5403 5403 5404 5405 5406 5407 5407 5407 5408 5409 5410 5411 5412 5413 5413 5414 5414 5413 5413 5413 5413 5413 5412 5411 5410 5409 5408 5407 5408 5409 5410 5411 5412 5411 5409 5410 5411 5411 5413 5413
5384 5386 5386 5387 5388 5389 5389 5390 5391 5392 5392 5393 5395 5396 5397 5398 5399 5399 5400 5399 5399 5399 5399 5398 5398 5398 5397 5396 5394 5394 5393 5394 5396 5397 5399 5400 5400 5399 5398 5398 5398 5399 5402
5369 5370 5370 5372 5373 5373 5373 5374 5375 5376 5377 5379 5380 5382 5383 5384 5384 5385 5385 5385 5385 5385 5385 5385 5385 5384 5383 5382 5381 5381 5381 5380 5381 5383 5385 5386 5386 5386 5385 5386 5386 5387 5388
5354 5355 5355 5356 5357 5357 5358 5359 5360 5361 5362 5364 5366 5367 5368 5369 5370 5371 5372 5371 5371 5371 5371 5371 5372 5371 5370 5369 5369 5368 5368 5368 5368 5369 5372 5373 5372 5372 5371 5372 5373 5372 5372
5340 5340 5340 5341 5342 5342 5343 5344 5345 5346 5347 5349 5350 5352 5353 5354 5355 5357 5357 5357 5358 5358 5357 5358 5358 5358 5357 5356 5355 5355 5355 5355 5354 5355 5357 5358 5358 5358 5357 5357 5357 5358 5360
5326 5326 5326 5327 5328 5328 5329 5329 5330 5331 5332 5333 5334 5336 5337 5339 5340 5342 5342 5344 5345 5345 5345 5344 5344 5344 5344 5342 5342 5343 5343 5343 5342 5343 5344 5345 5345 5344 5343 5343 5343 5343 5344
5311 5312 5312 5312 5313 5314 5314 5315 5315 5316 5317 5318 5319 5321 5322 5324 5325 5327 5327 5328 5329 5330 5331 5331 5331 5330 5330 5329 5328 5328 5328 5328 5327 5328 5329 5331 5331 5331 5329 5328 5328 5328 5328
5297 5298 5298 5298 5299 5299 5300 5300 5301 5302 5303 5303 5305 5306 5307 5308 5309 5311 5313 5314 5314 5315 5317 5317 5316 5316 5315 5315 5314 5314 5314 5313 5314 5314 5315 5317 5317 5316 5315 5313 5313 5312 5312
5283 5283 5283 5283 5284 5284 5285 5286 5287 5288 5289 5290 5291 5292 5293 5293 5294 5296 5297 5298 5299 5300 5301 5301 5301 5301 5301 5300 5300 5300 5299 5299 5300 5301 5302 5301 5300 5300 5299 5299 5298 5298 5298
5269 5269 5270 5270 5271 5270 5271 5272 5274 5274 5275 5276 5277 5278 5279 5279 5280 5281 5282 5283 5284 5285 5285 5285 5285 5285 5285 5285 5284 5284 5284 5285 5285 5286 5286 5285 5284 5284 5284 5284 5284 5284 5285
5256 5256 5256 5257 5257 5257 5258 5259 5260 5262 5263 5263 5264 5265 5265 5267 5267 5268 5268 5270 5270 5270 5270 5269 5269 5270 5270 5270 5269 5269 5269 5269 5269 5269 5269 5269 5269 5269 5269 5269 5268 5269 5269
5244 5244 5244 5244 5244 5244 5245 5246 5247 5248 5250 5250 5252 5252 5253 5254 5254 5255 5256 5256 5256 5256 5255 5255 5255 5254 5254 5254 5254 5254 5254 5253 5253 5253 5253 5254 5254 5254 5255 5254 5253 5253 5254
5231 5232 5232 5232 5231 5231 5232 5233 5235 5236 5236 5237 5238 5239 5240 5241 5242 5243 5243 5243 5242 5241 5241 5240 5240 5240 5239 5239 5238 5239 5239 5238 5237 5237 5238 5238 5239 5239 5239 5239 5239 5238 5237
5218 5218 5218 5218 5218 5218 5218 5219 5220 5221 5223 5224 5224 5224 5226 5227 5228 5229 5229 5229 5228 5227 5226 5226 5226 5225 5225 5225 5224 5224 5223 5223 5223 5223 5223 5223 5223 5223 5223 5224 5224 5223 5222
5206 5207 5206 5205 5204 5204 5204 5205 5206 5206 5209 5210 5211 5211 5210 5211 5212 5213 5213 5214 5215 5214 5212 5212 5212 5211 5211 5211 5211 5210 5210 5210 5209 5209 5209 5208 5208 5208 5208 5208 5208 5207 5207
5195 5194 5193 5193 5192 5192 5192 5193 5193 5195 5196 5197 5197 5198 5197 5196 5197 5198 5198 5198 5199 5200 5199 5199 5199 5198 5198 5198 5198 5197 5197 5197 5197 5196 5196 5195 5195 5194 5194 5193 5193 5193 5193
5185 5184 5182 5182 5182 5181 5181 5181 5182 5182 5183 5184 5184 5184 5185 5184 5185 5185 5185 5185 5185 5186 5185 5186 5186 5185 5185 5185 5185 5185 5185 5185 5184 5184 5183 5182 5181 5181 5180 5180 5179 5178 5178
5175 5174 5173 5172 5171 5171 5171 5171 5171 5171 5171 5172 5172 5171 5171 5171 5172 5173 5173 5173 5173 5173 5172 5172 5173 5173 5172 5172 5172 5173 5173 5173 5172 5171 5170 5169 5168 5168 5167 5166 5166 5165 5165
5165 5164 5163 5162 5162 5161 5160 5160 5160 5160 5160 5160 5160 5159 5159 5159 5159 5160 5161 5161 5161 5161 5161 5160 5161 5161 5160 5160 5160 5161 5161 5162 5161 5159 5158 5157 5156 5155 5155 5154 5154 5153 5152
5155 5154 5153 5153 5152 5151 5151 5151 5150 5149 5149 5149 5148 5148 5148 5148 5148 5148 5148 5149 5149 5149 5149 5149 5150 5150 5149 5149 5149 5149 5149 5149 5148 5147 5146 5145 5145 5144 5143 5142 5142 5141 5140
5145 5144 5143 5143 5142 5142 5141 5141 5141 5139 5138 5138 5138 5137 5137 5137 5137 5138 5138 5138 5138 5138 5139 5139 5139 5139 5139 5139 5139 5139 5138 5138 5137 5136 5135 5134 5134 5133 5132 5131 5130 5130 5129
5135 5135 5134 5133 5132 5132 5131 5131 5131 5130 5129 5128 5128 5127 5127 5127 5127 5128 5128 5128 5128 5128 5129 5129 5130 5130 5130 5129 5129 5129 5128 5128 5127 5126 5125 5124 5124 5123 5122 5121 5120 5119 5119